Simultaneous Nadir Overpasses (SNOs) Predictions

Prediction of SNOs between NOAA-20 and LANDSAT-8 Satellite Orbit:

Table of predicted SNOs for the next 14.0 days since TLE Epoch: 4/27/2024
Index Date (NOAA-20) Time (NOAA-20) Lat,Lon (NOAA-20) SZA (NOAA-20 ) Date (LANDSAT-8) Time (LANDSAT-8) Lat,Lon (LANDSAT-8) SZA (LANDSAT-8 ) Distance(km) Time Diff (sec)
1 04/27/2024 21:22:10 70.24,-144.31 55.96 04/27/2024 21:23:00 70.24,-144.37 55.95 2.16 50
2 04/27/2024 22:12:52 -70.14, 23.16 124.16 04/27/2024 22:12:30 -70.12, 23.10 124.18 3.11 22
3 04/30/2024 13:39:00 70.22, -28.50 55.11 04/30/2024 13:39:25 70.21, -28.52 55.10 0.97 25
4 04/30/2024 14:29:42 -70.11, 138.98 125.01 04/30/2024 14:28:55 -70.10, 138.95 125.03 1.93 47
5 05/03/2024 05:05:10 -70.46, -80.41 125.43 05/03/2024 05:06:21 -70.39, -80.00 125.51 17.06 71
6 05/03/2024 05:55:50 70.16, 87.37 54.26 05/03/2024 05:55:50 70.17, 87.32 54.27 2.01 0
7 05/03/2024 06:46:32 -70.05,-105.15 125.87 05/03/2024 06:45:20 -70.06,-105.20 125.86 2.15 72
8 05/05/2024 21:21:57 -70.27, 35.68 126.40 05/05/2024 21:22:47 -70.24, 35.67 126.43 2.84 50
9 05/05/2024 22:12:40 70.13,-156.80 53.45 05/05/2024 22:12:14 70.13,-156.85 53.45 1.99 26
10 05/05/2024 23:03:05 -69.11, 11.99 127.60 05/05/2024 23:01:59 -69.19, 9.51 127.47 98.64 66
11 05/08/2024 12:48:20 71.14, -17.29 53.80 05/08/2024 12:49:26 71.06, -14.83 53.65 88.88 66
12 05/08/2024 13:38:47 -70.24, 151.50 127.16 05/08/2024 13:39:09 -70.24, 151.57 127.17 2.69 22
13 05/08/2024 14:29:30 70.11, -40.98 52.70 05/08/2024 14:28:36 70.12, -40.95 52.71 1.89 54



Historial Predications of SNOs between NOAA-20 and LANDSAT-8
